Location: Antioch
(38.0049°N, 121.8058°W)
Time: 12:47:21
(UTC+00:00)

SL-4 R/B - Pass Details

Date: 11 February 2026
Orbit: 382 x 514 km, 51.6° (Epoch: 16 March)

Event Time Altitude Azimuth Distance (km) Brightness Sun altitude
Exits shadow 12:58:39 13° 15° (NNE) 1,417 4.3 -24.7°
Maximum altitude 12:58:48 13° 18° (NNE) 1,417 4.3 -24.7°
Drops below altitude 10° 13:00:38 10° 48° (NE) 1,625 5.0 -24.3°
Sets 13:03:49 0° 76° (ENE) 2,537 6.7 -23.7°
